Change the Weather History Date:

Monday, January 28, 2013

  Actual Average (KSOW) Record (KSOW)
Temperature  
Mean Temperature 28 °F -  
Max Temperature 35 °F 44 °F 66 °F (1986)
Min Temperature 20 °F 27 °F -2 °F (1979)
Degree Days  
Heating Degree Days 38    
Moisture  
Dew Point 28 °F    
Average Humidity 72    
Maximum Humidity 93    
Minimum Humidity 46    
Precipitation  
Precipitation 0.12 in - - ()
Sea Level Pressure  
Sea Level Pressure 29.80 in    
Wind  
Wind Speed 13 mph (SW)    
Max Wind Speed 31 mph    
Max Gust Speed 46 mph    
Visibility 8 miles    
Events Rain , Snow    
Averages and records for this station are not official NWS values.
T = Trace of Precipitation, MM = Missing Value Source: NWS Daily Summary

Daily Weather History Graph

Daily Weather History Graph

Search for Another Location

Airport or City:

Trip Planner

Search our weather history database for the weather conditions in past years. The results will help you decide how hot, cold, wet, or windy it might be!

Date:

Astronomy

Jan. 28, 2013 Rise Set
Actual Time 7:17 AM MST 5:43 PM MST
Civil Twilight 6:51 AM MST 6:10 PM MST
Nautical Twilight 6:21 AM MST 6:40 PM MST
Astronomical Twilight 5:51 AM MST 7:10 PM MST
Moon 7:34 PM MST (1/28) 7:51 AM MST (1/28)
Length of Visible Light 11h 18m
Length of Day
10h 25m
Full, 97% of the Moon is Illuminated
Jan 28
Full
Feb 3
Last Quarter
Feb 10
New
Feb 17
First Quarter
Feb 25
Full

Hourly Weather History & Observations

Time (MST) Temp. Windchill Dew Point Humidity Pressure Visibility Wind Dir Wind Speed Gust Speed Precip Events Conditions
12:54 AM 41.0 °F - 36.0 °F 82% 29.77 in 10.0 mi Calm Calm - N/A   Mostly Cloudy
1:54 AM 42.1 °F 39.2 °F 35.1 °F 76% 29.75 in 10.0 mi SSW 4.6 mph - N/A   Mostly Cloudy
2:54 AM 39.9 °F 33.9 °F 34.0 °F 79% 29.74 in 10.0 mi SE 9.2 mph - N/A   Scattered Clouds
3:54 AM 41.0 °F 35.8 °F 34.0 °F 76% 29.73 in 10.0 mi SSW 8.1 mph - N/A   Mostly Cloudy
4:54 AM 41.0 °F 36.4 °F 33.1 °F 73% 29.73 in 10.0 mi SSW 6.9 mph - N/A   Partly Cloudy
5:54 AM 39.0 °F 34.8 °F 32.0 °F 76% 29.73 in 10.0 mi ENE 5.8 mph - N/A   Clear
6:54 AM 37.0 °F 34.5 °F 32.0 °F 82% 29.77 in 10.0 mi West 3.5 mph - N/A   Mostly Cloudy
7:54 AM 41.0 °F 35.2 °F 32.0 °F 70% 29.77 in 10.0 mi South 9.2 mph - N/A   Partly Cloudy
8:54 AM 43.0 °F 34.2 °F 32.0 °F 65% 29.74 in 10.0 mi SW 20.7 mph 27.6 mph 0.00 in   Clear
9:54 AM 46.4 °F 37.0 °F 28.4 °F 50% 29.82 in 10.0 mi SSW 31.1 mph 46.0 mph N/A   Clear
10:54 AM 41.0 °F 30.0 °F 35.1 °F 79% 29.76 in 9.0 mi SW 28.8 mph 43.7 mph 0.00 in Rain Light Rain
11:03 AM 42.8 °F 34.3 °F 35.6 °F 76% 29.85 in 10.0 mi SW 19.6 mph 33.4 mph 0.00 in   Scattered Clouds
11:54 AM 46.9 °F - 28.9 °F 50% 29.73 in 10.0 mi SW 27.6 mph 41.4 mph 0.00 in   Clear
12:54 PM 46.9 °F - 28.0 °F 48% 29.70 in 10.0 mi SW 29.9 mph 41.4 mph N/A   Clear
1:54 PM 46.0 °F 36.7 °F 26.1 °F 46% 29.70 in 10.0 mi SW 29.9 mph 43.7 mph N/A   Partly Cloudy
2:54 PM 37.0 °F 25.9 °F 32.0 °F 82% 29.78 in 2.5 mi SW 23.0 mph 36.8 mph 0.01 in Snow Light Snow
2:57 PM 35.6 °F 24.5 °F 32.0 °F 87% 29.83 in 1.2 mi SW 20.7 mph 33.4 mph 0.00 in Snow Light Snow
3:08 PM 35.6 °F 25.9 °F 33.8 °F 93% 29.83 in 3.0 mi WSW 16.1 mph 26.5 mph 0.01 in Snow Light Snow
3:15 PM 37.4 °F 26.9 °F 33.8 °F 87% 29.83 in 7.0 mi WSW 20.7 mph 26.5 mph 0.01 in Rain Light Rain
3:31 PM 39.2 °F 28.5 °F 32.0 °F 75% 29.83 in 10.0 mi SW 24.2 mph 31.1 mph 0.01 in   Scattered Clouds
3:54 PM 39.9 °F 29.7 °F 30.9 °F 70% 29.76 in 10.0 mi SW 23.0 mph 35.7 mph 0.01 in   Clear
4:24 PM 35.6 °F 24.0 °F 30.2 °F 81% 29.85 in 2.0 mi WSW 23.0 mph 29.9 mph 0.00 in Snow Light Snow
4:30 PM 33.8 °F 21.6 °F 30.2 °F 87% 29.86 in 0.8 mi WSW 23.0 mph 29.9 mph 0.00 in Snow Light Snow
4:37 PM 33.8 °F 20.8 °F 28.4 °F 81% 29.86 in 1.0 mi WSW 26.5 mph 34.5 mph 0.01 in Snow Light Snow
4:51 PM 33.8 °F 21.0 °F 26.6 °F 75% 29.87 in 3.0 mi WSW 25.3 mph 46.0 mph 0.01 in Snow Light Snow
4:54 PM 33.1 °F 20.9 °F 27.0 °F 78% 29.82 in 6.0 mi WSW 21.9 mph 36.8 mph 0.01 in Snow Light Snow
5:54 PM 32.0 °F 20.5 °F 21.9 °F 66% 29.83 in 10.0 mi WSW 18.4 mph 25.3 mph 0.00 in   Clear
6:54 PM 30.9 °F 19.1 °F 21.9 °F 69% 29.84 in 10.0 mi SW 18.4 mph 26.5 mph N/A   Clear
7:54 PM 30.9 °F 27.5 °F 21.9 °F 69% 29.84 in 10.0 mi Variable 3.5 mph - N/A   Clear
8:54 PM 30.0 °F 21.7 °F 19.0 °F 64% 29.82 in 10.0 mi SSW 9.2 mph - N/A   Clear
9:54 PM 30.0 °F 24.1 °F 19.0 °F 64% 29.81 in 10.0 mi SW 5.8 mph - N/A   Mostly Cloudy
10:54 PM 30.0 °F 23.2 °F 21.0 °F 69% 29.82 in 10.0 mi West 6.9 mph - N/A   Overcast
11:49 PM 28.4 °F 20.4 °F 23.0 °F 80% 29.86 in 5.0 mi SW 8.1 mph - 0.00 in Snow Light Snow
11:54 PM 28.0 °F 20.0 °F 23.0 °F 81% 29.81 in 5.0 mi SW 8.1 mph - 0.00 in Snow Light Snow